Simultaneous Nadir Overpasses (SNOs) Predictions

Prediction of SNOs near US between AQUA and NPP Satellite Orbit:

Table of predicted SNOs near US for the next 10.0 days since TLE Epoch: 3/6/2021
Index Date (AQUA) Time (AQUA) AQUA Lat,Lon Date (NPP) Time (NPP) NPP Lat,Lon Distance(km) Time Diff (sec)
1 03/08/2021 09:24:26 20.25,-114.17 03/08/2021 09:16:10 20.34,-114.65 50.23 496
2 03/11/2021 06:30:33 45.44, -65.36 03/11/2021 06:30:17 45.78, -67.40 162.76 16
3 03/11/2021 08:08:11 49.90, -88.34 03/11/2021 08:10:27 50.38, -90.83 186.04 136
4 03/11/2021 09:47:04 49.90,-113.05 03/11/2021 09:51:54 50.55,-116.13 230.46 290
5 03/13/2021 19:06:20 49.98, -92.53 03/13/2021 19:00:43 49.64, -94.38 138.46 337
6 03/13/2021 20:45:13 49.98,-117.25 03/13/2021 20:42:11 49.54,-119.71 183.75 182
